Regional Weather Roundup
Issued by NWS Midland/Odessa, TX

Home | Current Version | Previous Version | Text Only | Print | Product List | Glossary On
Versions: 1 2 3 4 5 6 7 8 9 10 11 12 13 14 15 16 17 18 19 20 21 22 23 24 25 26 27 28 29 30 31 32 33 34 35 36 37 38 39 40 41 42 43 44 45 46 47 48 49 50
000
ASUS44 KMAF 231710
RWRMAF
MIDLAND AREA WEATHER ROUNDUP
NATIONAL WEATHER SERVICE MIDLAND TX
1200 PM CDT SUN APR 23 2017

...IN SOUTHWEST TEXAS AND SOUTHEAST NEW MEXICO...

CITY           SKY/WX    TMP DP  RH WIND       PRES   REMARKS
ALPINE         SUNNY     62  32  32 E10       30.30F
ANDREWS        FAIR      59  34  39 E8        30.26F
ARTESIA        SUNNY     61  36  39 S16       30.23F
BIG SPRING     SUNNY     60  33  36 E6        30.27F
CARLSBAD       SUNNY     62  37  39 SE13G22   30.22F
DRYDEN           N/A     65  38  36 NE9       30.23F
FORT STOCKTON  SUNNY     63  35  35 S9        30.24F
GUAD PASS      SUNNY     55  35  47 NE24      30.25F
HOBBS          SUNNY     59  32  36 S7        30.26F
MARFA          SUNNY     61  32  33 E3        30.27F
MIDLAND AIRPK  SUNNY     61  34  36 SE7       30.26F
MIDLAND INTL   SUNNY     62  33  33 VRB6      30.25F
ODESSA         SUNNY     61  32  33 E8        30.25F
PECOS          SUNNY     64  35  34 SE7       30.24F
PRESIDIO       FAIR      69  38  32 NE10      30.22F
SEMINOLE       SUNNY     59  33  37 CALM      30.26F
SNYDER         SUNNY    N/A N/A N/A N3        30.25F
WINK           SUNNY     63  35  35 SE8       30.23F
$$
...OTHER STATIONS IN TEXAS...

CITY           SKY/WX    TMP DP  RH WIND       PRES   REMARKS
ABILENE        SUNNY     64  35  34 NW10      30.23F
AMARILLO       SUNNY     60  33  36 S10G26    30.21F
AUSTIN         SUNNY     71  40  32 N18G25    30.16F
BROWNSVILLE    CLOUDY    66  49  54 NW15G21   30.18S
CORPUS CHRISTI MOSUNNY   69  44  40 N15       30.17F
DALLAS FTW     SUNNY     68  41  37 N13       30.15F
DEL RIO        NOT AVBL
EL PASO        MOSUNNY   66  30  26 SE14G21   30.18F
HOUSTON INT    MOSUNNY   66  46  48 N12G22    30.09F
LUBBOCK        MOSUNNY   59  31  34 CALM      30.23F
SAN ANGELO     SUNNY     66  30  26 NE9       30.23F
SAN ANTONIO    MOSUNNY   68  40  35 N8G20     30.19F
WACO           SUNNY     66  45  46 N9G18     30.17F
WICHITA FALLS  NOT AVBL
$$
...OTHER LOCATIONS IN NEW MEXICO...

CITY           SKY/WX    TMP DP  RH WIND       PRES   REMARKS
ALAMOGORDO     SUNNY     63  32  31 SW3       30.20F
ALBUQUERQUE    MOSUNNY   57  32  38 SW14      30.20F
CANNON AFB     SUNNY     59  33  37 SW16      30.21F
CLOVIS         SUNNY     59  34  38 S16       30.22F
HOLLOMAN AFB   SUNNY     63  33  32 SE6       30.22F
ROSWELL        SUNNY     62  34  35 S16G25      N/A
RUIDOSO        SUNNY     55  32  41 E7        30.26F
SANTA FE       SUNNY     55  32  41 NW6       30.19F
TRUTH OR CONSE SUNNY     63  33  32 S8        30.18F
TUCUMCARI      SUNNY     63  34  33 SW22G30   30.15F
$$




USA.gov is the U.S. government's official web portal to all federal, state and local government web resources and services.